Location: Ecklingerode
(51.5036°N, 10.3122°E)
Time: 00:55:47
(UTC+00:00)

SL-08 RB Rocket - Pass Details

Date: 29 October 2020
Orbit: 648 x 683 km, 97.8° (Epoch: 23 November)

Event Time Altitude Azimuth Distance (km) Brightness Sun altitude
Exits shadow 18:26:11 54° 24° (NNE) 795 3.9 -23.7°
Drops below altitude 10° 18:29:55 10° 351° (N) 2,079 6.4 -24.3°
Sets 18:32:10 0° 349° (NNW) 3,000 7.3 -24.7°
